Change the Weather History Date:

Tuesday, February 5, 2013

  Actual Average Record
Temperature  
Mean Temperature 40 °F 35 °F  
Max Temperature 54 °F 45 °F 72 °F (2008)
Min Temperature 26 °F 26 °F 3 °F (1979)
Degree Days  
Heating Degree Days 25 30  
Month to date heating degree days 153 151  
Since 1 July heating degree days 2652 2889  
Cooling Degree Days 0 0  
Month to date cooling degree days 0 0  
Year to date cooling degree days 0 0  
Moisture  
Dew Point 32 °F    
Average Humidity 80    
Maximum Humidity 100    
Minimum Humidity 59    
Precipitation  
Precipitation 0.00 in 0.13 in 2.26 in (2008)
Month to date precipitation T 0.63  
Year to date precipitation 3.58 4.10  
Sea Level Pressure  
Sea Level Pressure 30.03 in    
Wind  
Wind Speed 4 mph (NNE)    
Max Wind Speed 12 mph    
Max Gust Speed 15 mph    
Visibility 5 miles    
Events Fog    
T = Trace of Precipitation, MM = Missing Value Source: NWS Daily Summary

Daily Weather History Graph

Daily Weather History Graph

Search for Another Location

Airport or City:

Trip Planner

Search our weather history database for the weather conditions in past years. The results will help you decide how hot, cold, wet, or windy it might be!

Date:

Astronomy

Feb. 05, 2013 Rise Set
Actual Time 6:57 AM CST 5:27 PM CST
Civil Twilight 6:30 AM CST 5:54 PM CST
Nautical Twilight 5:59 AM CST 6:25 PM CST
Astronomical Twilight 5:28 AM CST 6:56 PM CST
Moon 2:36 AM CST (2/5) 12:47 PM CST (2/5)
Length of Visible Light 11h 24m
Length of Day
10h 30m
Waning Crescent, 26% of the Moon is Illuminated
Feb 5
Waning Crescent
Feb 10
New
Feb 17
First Quarter
Feb 25
Full
Mar 4
Last Quarter

Hourly Weather History & Observations

Time (CST) Temp. Windchill Dew Point Humidity Pressure Visibility Wind Dir Wind Speed Gust Speed Precip Events Conditions
12:53 AM 35.1 °F 30.1 °F 28.9 °F 78% 29.95 in 10.0 mi North 5.8 mph - N/A   Clear
1:53 AM 33.1 °F 27.7 °F 28.0 °F 82% 29.96 in 10.0 mi North 5.8 mph - N/A   Clear
2:53 AM 30.9 °F - 27.0 °F 85% 29.96 in 10.0 mi Calm Calm - N/A   Clear
3:53 AM 30.0 °F 26.5 °F 27.0 °F 88% 29.96 in 9.0 mi North 3.5 mph - N/A   Clear
4:53 AM 28.0 °F - 26.1 °F 92% 29.96 in 7.0 mi Calm Calm - N/A   Clear
5:53 AM 28.0 °F - 26.1 °F 92% 29.97 in 5.0 mi Calm Calm - N/A   Clear
6:53 AM 27.0 °F - 25.0 °F 92% 30.01 in 4.0 mi Calm Calm - N/A   Clear
7:14 AM 28.4 °F - 26.6 °F 93% 30.01 in 2.5 mi Calm Calm - N/A   Clear
7:25 AM 28.4 °F - 26.6 °F 93% 30.00 in 3.0 mi Calm Calm - N/A   Clear
7:34 AM 28.4 °F - 26.6 °F 93% 30.00 in 2.5 mi Calm Calm - N/A   Clear
7:53 AM 30.0 °F - 28.0 °F 92% 30.01 in 3.0 mi Calm Calm - N/A   Clear
8:53 AM 32.0 °F - 28.9 °F 88% 30.03 in 4.0 mi Calm Calm - N/A   Clear
9:53 AM 35.1 °F - 30.0 °F 82% 30.03 in 5.0 mi Calm Calm - N/A   Haze
10:53 AM 42.1 °F - 34.0 °F 73% 30.02 in 9.0 mi Calm Calm - N/A   Clear
11:53 AM 46.9 °F - 36.0 °F 66% 29.99 in 10.0 mi Variable 6.9 mph - N/A   Clear
12:53 PM 48.9 °F - 37.9 °F 66% 29.96 in 10.0 mi SSW 11.5 mph - N/A   Clear
1:53 PM 50.0 °F - 39.0 °F 66% 29.96 in 10.0 mi SSW 9.2 mph - N/A   Clear
2:53 PM 53.1 °F - 41.0 °F 64% 29.95 in 10.0 mi SSW 9.2 mph - N/A   Clear
3:53 PM 54.0 °F - 39.0 °F 57% 29.95 in 10.0 mi SW 9.2 mph - N/A   Clear
4:53 PM 52.0 °F - 39.9 °F 63% 29.96 in 10.0 mi SSW 9.2 mph - N/A   Clear
5:53 PM 48.9 °F - 37.9 °F 66% 29.97 in 10.0 mi Calm Calm - N/A   Clear
6:53 PM 41.0 °F 39.0 °F 36.0 °F 82% 30.00 in 10.0 mi East 3.5 mph - N/A   Clear
7:53 PM 39.0 °F - 36.0 °F 89% 30.03 in 10.0 mi Calm Calm - N/A   Clear
8:53 PM 36.0 °F 31.1 °F 35.1 °F 97% 30.05 in 7.0 mi NE 5.8 mph - N/A   Clear
9:41 PM 33.8 °F - 33.8 °F 100% 30.07 in 2.0 mi Calm Calm - N/A   Clear
9:48 PM 33.8 °F - 33.8 °F 100% 30.07 in 1.0 mi Calm Calm - N/A   Mist
9:53 PM 35.6 °F - 33.8 °F 93% 30.07 in 0.8 mi Calm Calm - N/A   Mist
10:03 PM 35.6 °F - 33.8 °F 93% 30.07 in 0.2 mi Calm Calm - N/A Fog Fog
10:11 PM 35.6 °F - 33.8 °F 93% 30.08 in 0.5 mi Calm Calm - N/A Fog Fog
10:19 PM 33.8 °F 30.8 °F 33.8 °F 100% 30.08 in 1.2 mi WSW 3.5 mph - N/A   Partly Cloudy
10:23 PM 33.8 °F - 32.0 °F 93% 30.08 in 3.0 mi Calm Calm - N/A   Partly Cloudy
10:33 PM 32.0 °F 27.5 °F 30.2 °F 93% 30.08 in 1.5 mi NE 4.6 mph - N/A   Partly Cloudy
10:35 PM 32.0 °F 28.7 °F 30.2 °F 93% 30.08 in 0.8 mi NE 3.5 mph - N/A   Mist
10:44 PM 33.8 °F 30.8 °F 32.0 °F 93% 30.09 in 0.5 mi ENE 3.5 mph - N/A Fog Fog
10:49 PM 33.8 °F 30.8 °F 32.0 °F 93% 30.09 in 2.0 mi ENE 3.5 mph - N/A   Clear
10:53 PM 34.0 °F - 33.1 °F 96% 30.10 in 2.5 mi Calm Calm - N/A   Clear
10:56 PM 33.8 °F - 33.8 °F 100% 30.09 in 0.8 mi Calm Calm - N/A   Clear
11:01 PM 32.0 °F - 30.2 °F 93% 30.10 in 0.2 mi Calm Calm - N/A Fog Fog
11:30 PM 33.8 °F 27.7 °F 30.2 °F 87% 30.10 in 0.5 mi NNE 6.9 mph - N/A Fog Fog
11:44 PM 30.2 °F 23.4 °F 30.2 °F 100% 30.10 in 2.0 mi NNE 6.9 mph - N/A   Clear
11:53 PM 32.0 °F 24.8 °F 30.9 °F 96% 30.11 in 4.0 mi North 8.1 mph - N/A   Clear